EW7240 Weather Reports


time (UTC)temp
F
wind
direction
speed
knots
gust
knots
rain 1hr
in
rain 24hr
in
rain mn
in
humidity
%
barometer
mb
20260505041518 47 69 6.1 10.4 0.00 0.00 0.00 76 1004.6
20260505040017 48 60 3.5 7.8 0.00 0.00 0.00 75 1005.1
20260505034515 49 49 4.3 9.6 0.00 0.00 0.00 72 1005.2
20260505033014 49 27 6.1 10.4 0.00 0.00 0.00 71 1005.3
20260505031533 50 5 8.7 11.3 0.00 0.00 0.00 69 1005.2
20260505030013 51 12 11.3 17.4 0.00 0.00 0.00 65 1004.6
20260505024519 51 339 6.1 9.6 0.00 0.00 0.00 65 1004.4
20260505023012 51 340 7.8 18.2 0.00 0.00 0.00 65 1004.3
20260505021513 53 306 8.7 13.0 0.00 0.00 0.00 59 1004.4
20260505020020 54 355 7.8 12.2 0.00 0.00 0.00 55 1004.1
20260505014507 54 355 10.4 17.4 0.00 0.00 0.00 54 1003.6
20260505013006 55 5 13.9 20.0 0.00 0.00 0.00 53 1002.9
20260505011506 56 11 13.9 20.0 0.00 0.00 0.00 51 1002.5
20260505010006 57 5 12.2 16.5 0.00 0.00 0.00 47 1002.4
20260505004508 58 344 11.3 18.2 0.00 0.00 0.00 45 1002.3
20260505003003 58 343 11.3 16.5 0.00 0.00 0.00 43 1002.2
20260505001503 59 11 8.7 13.9 0.00 0.00 0.00 42 1002.5
20260505000004 60 5 5.2 14.8 0.00 0.00 0.00 38 1002.5
20260504234500 60 64 13.9 21.7 0.00 0.00 0.00 36 1002.3
20260504233106 61 338 5.2 10.4 0.00 0.00 0.00 35 1002.2
20260504231602 62 317 6.1 13.0 0.00 0.00 0.00 33 1001.7
20260504230108 64 340 6.1 12.2 0.00 0.00 0.00 32 1001.4
20260504224559 65 10 1.7 4.3 0.00 0.00 0.00 30 1001.1
20260504223104 65 231 1.7 7.0 0.00 0.00 0.00 32 1001.3
20260504221605 65 253 5.2 11.3 0.00 0.00 0.00 30 1001.2
20260504220059 65 315 4.3 12.2 0.00 0.00 0.00 30 1001.1
20260504214558 65 333 3.5 10.4 0.00 0.00 0.00 30 1001.1
20260504213055 65 331 7.8 20.9 0.00 0.00 0.00 29 1001.1
20260504211558 65 355 12.2 24.3 0.00 0.00 0.00 31 1001.1
20260504210055 66 44 8.7 14.8 0.00 0.00 0.00 28 1001.1
20260504204555 67 43 4.3 13.9 0.00 0.00 0.00 28 1001.0
20260504203101 68 26 5.2 18.2 0.00 0.00 0.00 28 1001.2
20260504201550 70 28 7.8 13.0 0.00 0.00 0.00 28 1001.4
20260504200047 69 287 4.3 11.3 0.00 0.00 0.00 28 1001.7
20260504194545 67 319 9.6 13.0 0.00 0.00 0.00 30 1001.8
20260504193044 67 110 7.0 14.8 0.00 0.00 0.00 28 1002.0
20260504191544 65 51 7.8 15.6 0.00 0.00 0.00 28 1002.0
20260504190043 65 284 4.3 14.8 0.00 0.00 0.00 28 1002.1
20260504184542 66 348 7.0 10.4 0.00 0.00 0.00 26 1002.1
20260504183041 65 90 8.7 11.3 0.00 0.00 0.00 27 1002.0
20260504181540 67 311 3.5 7.0 0.00 0.00 0.00 25 1002.2
20260504180038 67 281 5.2 9.6 0.00 0.00 0.00 26 1002.3
20260504174537 67 292 2.6 11.3 0.00 0.00 0.00 24 1002.5
20260504173037 68 317 4.3 11.3 0.00 0.00 0.00 24 1002.7
20260504171534 66 360 2.6 15.6 0.00 0.00 0.00 25 1002.9
20260504081515 46 198 6.1 7.0 0.00 0.00 0.00 57 1004.7
20260504044541 51 161 4.3 7.0 0.00 0.00 0.00 57 1006.6
20260504043046 52 153 3.5 4.3 0.00 0.00 0.00 52 1006.8